| time (UTC) | temp F | wind direction | speed knots | gust knots | rain 1hr in | rain 24hr in | rain mn in | humidity % | barometer mb |
| 20260506201232 | 52 | 59 | 1.7 | 3.5 | 0.00 | 0.04 | 0.04 | 88 | 1006.6 |
| 20260506200729 | 52 | 83 | 0.9 | 3.5 | 0.00 | 0.04 | 0.04 | 87 | 1006.6 |
| 20260506200225 | 52 | 57 | 1.7 | 2.6 | 0.00 | 0.04 | 0.04 | 87 | 1006.5 |
| 20260506195721 | 53 | 42 | 2.6 | 3.5 | 0.00 | 0.04 | 0.04 | 87 | 1006.3 |
| 20260506195218 | 53 | 68 | 1.7 | 3.5 | 0.00 | 0.04 | 0.04 | 87 | 1006.2 |
| 20260506194715 | 53 | 61 | 2.6 | 3.5 | 0.00 | 0.04 | 0.04 | 87 | 1006.5 |
| 20260506194212 | 53 | 24 | 0.9 | 3.5 | 0.00 | 0.04 | 0.04 | 86 | 1006.4 |
| 20260506193710 | 53 | 29 | 3.5 | 3.5 | 0.00 | 0.04 | 0.04 | 86 | 1006.3 |
| 20260506193201 | 53 | 341 | 2.6 | 6.1 | 0.00 | 0.04 | 0.04 | 86 | 1006.3 |
| 20260506192657 | 54 | 295 | 6.1 | 7.8 | 0.00 | 0.04 | 0.04 | 86 | 1006.5 |
| 20260506192154 | 54 | 306 | 3.5 | 7.8 | 0.00 | 0.04 | 0.04 | 86 | 1006.4 |
| 20260506191651 | 54 | 342 | 3.5 | 5.2 | 0.00 | 0.04 | 0.04 | 86 | 1005.8 |
| 20260506191147 | 54 | 68 | 0.9 | 3.5 | 0.00 | 0.04 | 0.04 | 86 | 1005.6 |
| 20260506190644 | 54 | 69 | 1.7 | 5.2 | 0.00 | 0.04 | 0.04 | 85 | 1005.7 |
| 20260506190141 | 54 | 94 | 0.9 | 1.7 | 0.00 | 0.04 | 0.04 | 85 | 1005.4 |
| 20260506185638 | 54 | 103 | 6.1 | 9.6 | 0.00 | 0.04 | 0.04 | 86 | 1005.5 |
| 20260506185134 | 54 | 81 | 2.6 | 5.2 | 0.00 | 0.04 | 0.04 | 86 | 1005.3 |
| 20260506184632 | 54 | 91 | 1.7 | 5.2 | 0.00 | 0.04 | 0.04 | 85 | 1005.3 |
| 20260506184129 | 54 | 88 | 0.9 | 7.0 | 0.00 | 0.04 | 0.04 | 85 | 1005.3 |
| 20260506183625 | 54 | 87 | 2.6 | 6.1 | 0.00 | 0.04 | 0.04 | 85 | 1005.2 |
| 20260506183121 | 54 | 86 | 4.3 | 5.2 | 0.00 | 0.04 | 0.04 | 85 | 1005.1 |
| 20260506182619 | 54 | 68 | 5.2 | 7.8 | 0.00 | 0.04 | 0.04 | 85 | 1005.3 |
| 20260506182116 | 54 | 90 | 1.7 | 3.5 | 0.00 | 0.04 | 0.04 | 85 | 1005.2 |
| 20260506181614 | 54 | 76 | 4.3 | 7.0 | 0.00 | 0.04 | 0.04 | 85 | 1005.1 |
| 20260506181111 | 55 | 56 | 2.6 | 7.0 | 0.00 | 0.04 | 0.04 | 85 | 1005.0 |
| 20260506180607 | 55 | 49 | 2.6 | 6.1 | 0.00 | 0.04 | 0.04 | 84 | 1005.2 |
| 20260506180104 | 55 | 80 | 2.6 | 6.1 | 0.00 | 0.04 | 0.04 | 84 | 1005.3 |
| 20260506175600 | 55 | 85 | 1.7 | 7.8 | 0.00 | 0.04 | 0.04 | 83 | 1005.3 |
| 20260506175056 | 55 | 82 | 6.1 | 7.8 | 0.00 | 0.04 | 0.04 | 83 | 1005.4 |
| 20260506174555 | 55 | 55 | 1.7 | 7.8 | 0.00 | 0.04 | 0.04 | 83 | 1005.2 |
| 20260506174051 | 55 | 53 | 2.6 | 6.1 | 0.00 | 0.04 | 0.04 | 82 | 1005.3 |
| 20260506173549 | 55 | 49 | 1.7 | 6.1 | 0.00 | 0.04 | 0.04 | 82 | 1005.4 |
| 20260506173045 | 55 | 76 | 4.3 | 7.0 | 0.00 | 0.04 | 0.04 | 82 | 1005.3 |
| 20260506172543 | 55 | 69 | 1.7 | 7.0 | 0.00 | 0.04 | 0.04 | 82 | 1005.2 |
| 20260506172039 | 55 | 85 | 2.6 | 7.0 | 0.00 | 0.04 | 0.04 | 81 | 1005.2 |
| 20260506171537 | 56 | 70 | 6.1 | 7.8 | 0.00 | 0.04 | 0.04 | 81 | 1005.3 |
| 20260506171035 | 56 | 88 | 4.3 | 7.8 | 0.00 | 0.04 | 0.04 | 81 | 1005.3 |
| 20260506170532 | 56 | 79 | 1.7 | 3.5 | 0.00 | 0.04 | 0.04 | 81 | 1005.2 |
| 20260506170029 | 56 | 87 | 3.5 | 7.0 | 0.00 | 0.04 | 0.04 | 81 | 1005.2 |
| 20260506165527 | 56 | 70 | 2.6 | 6.1 | 0.00 | 0.04 | 0.04 | 81 | 1005.4 |
| 20260506165023 | 56 | 67 | 3.5 | 9.6 | 0.00 | 0.04 | 0.04 | 80 | 1005.2 |
| 20260506164520 | 56 | 56 | 1.7 | 7.8 | 0.00 | 0.04 | 0.04 | 80 | 1005.3 |
| 20260506164018 | 56 | 78 | 6.1 | 9.6 | 0.00 | 0.04 | 0.04 | 79 | 1005.3 |
| 20260506163513 | 57 | 53 | 5.2 | 12.2 | 0.00 | 0.04 | 0.04 | 78 | 1005.4 |
| 20260506163009 | 57 | 76 | 3.5 | 14.8 | 0.00 | 0.04 | 0.04 | 79 | 1005.5 |
| 20260506162506 | 57 | 77 | 1.7 | 11.3 | 0.00 | 0.04 | 0.04 | 79 | 1005.4 |
| 20260506162003 | 57 | 38 | 5.2 | 11.3 | 0.00 | 0.04 | 0.04 | 79 | 1005.2 |
| 20260506161500 | 57 | 55 | 1.7 | 13.0 | 0.00 | 0.04 | 0.04 | 78 | 1005.5 |
| 20260506160958 | 58 | 63 | 9.6 | 11.3 | 0.00 | 0.04 | 0.04 | 78 | 1005.3 |
| 20260506160455 | 58 | 49 | 4.3 | 8.7 | 0.00 | 0.04 | 0.04 | 78 | 1005.6 |
| 20260506155952 | 57 | 66 | 7.0 | 8.7 | 0.00 | 0.04 | 0.04 | 79 | 1005.6 |
| 20260506155450 | 57 | 69 | 5.2 | 11.3 | 0.00 | 0.04 | 0.04 | 78 | 1005.6 |
| 20260506153616 | 58 | 46 | 6.1 | 8.7 | 0.00 | 0.04 | 0.04 | 78 | 1005.8 |
| 20260506153114 | 58 | 22 | 6.1 | 8.7 | 0.00 | 0.04 | 0.04 | 78 | 1005.9 |
| 20260506152611 | 58 | 56 | 5.2 | 8.7 | 0.00 | 0.04 | 0.04 | 80 | 1006.0 |
| 20260506152108 | 58 | 67 | 3.5 | 7.0 | 0.00 | 0.04 | 0.04 | 80 | 1006.0 |
| 20260506151606 | 58 | 56 | 1.7 | 5.2 | 0.00 | 0.04 | 0.04 | 81 | 1006.1 |
| 20260506151103 | 58 | 60 | 2.6 | 6.1 | 0.00 | 0.04 | 0.04 | 81 | 1005.9 |
| 20260506150600 | 58 | 23 | 3.5 | 6.1 | 0.07 | 0.04 | 0.04 | 81 | 1006.2 |
| 20260506150057 | 59 | 47 | 1.7 | 7.8 | 0.07 | 0.04 | 0.04 | 80 | 1006.2 |
| 20260506145553 | 59 | 72 | 3.5 | 3.5 | 0.05 | 0.03 | 0.03 | 80 | 1006.2 |
| 20260506145051 | 60 | 66 | 1.7 | 3.5 | 0.12 | 0.03 | 0.03 | 78 | 1006.5 |
| 20260506144547 | 61 | 82 | 1.7 | 3.5 | 0.12 | 0.02 | 0.02 | 75 | 1006.8 |
| 20260506144044 | 62 | 86 | 2.6 | 5.2 | 0.05 | 0.01 | 0.01 | 70 | 1006.8 |
| 20260506143542 | 63 | 61 | 1.7 | 2.6 | 0.00 | 0.00 | 0.00 | 64 | 1007.2 |
| 20260506143041 | 64 | 79 | 0.0 | 1.7 | 0.00 | 0.00 | 0.00 | 63 | 1007.2 |
| 20260506142538 | 64 | 95 | 0.0 | 0.0 | 0.00 | 0.00 | 0.00 | 63 | 1006.9 |
| 20260506142036 | 64 | 80 | 1.7 | 5.2 | 0.00 | 0.00 | 0.00 | 62 | 1006.4 |
| 20260506141533 | 64 | 74 | 7.0 | 8.7 | 0.00 | 0.00 | 0.00 | 61 | 1006.1 |
| 20260506141032 | 64 | 53 | 3.5 | 6.1 | 0.00 | 0.00 | 0.00 | 61 | 1006.2 |
| 20260506140529 | 65 | 85 | 4.3 | 8.7 | 0.00 | 0.00 | 0.00 | 61 | 1006.1 |
| 20260506140026 | 65 | 81 | 1.7 | 7.8 | 0.00 | 0.00 | 0.00 | 61 | 1006.1 |
| 20260506135523 | 65 | 90 | 2.6 | 7.0 | 0.00 | 0.00 | 0.00 | 61 | 1006.2 |
| 20260506135019 | 65 | 88 | 4.3 | 8.7 | 0.00 | 0.00 | 0.00 | 60 | 1006.2 |
| 20260506134515 | 65 | 74 | 5.2 | 6.1 | 0.00 | 0.00 | 0.00 | 60 | 1006.4 |
| 20260506134012 | 66 | 85 | 7.0 | 11.3 | 0.00 | 0.00 | 0.00 | 58 | 1006.3 |
| 20260506133509 | 67 | 53 | 6.1 | 11.3 | 0.00 | 0.00 | 0.00 | 58 | 1006.2 |
| 20260506133006 | 67 | 84 | 3.5 | 7.8 | 0.00 | 0.00 | 0.00 | 59 | 1006.4 |
| 20260506132503 | 67 | 52 | 4.3 | 7.0 | 0.00 | 0.00 | 0.00 | 60 | 1006.7 |
| 20260506132000 | 66 | 75 | 5.2 | 7.8 | 0.00 | 0.00 | 0.00 | 59 | 1006.6 |
| 20260506131457 | 67 | 96 | 6.1 | 8.7 | 0.00 | 0.00 | 0.00 | 59 | 1006.8 |
| 20260506130953 | 66 | 86 | 8.7 | 13.0 | 0.00 | 0.00 | 0.00 | 58 | 1007.0 |
| 20260506130450 | 67 | 92 | 5.2 | 9.6 | 0.00 | 0.00 | 0.00 | 58 | 1006.9 |
| 20260506125948 | 67 | 71 | 4.3 | 7.8 | 0.00 | 0.00 | 0.00 | 58 | 1007.1 |
| 20260506125446 | 67 | 63 | 2.6 | 8.7 | 0.00 | 0.00 | 0.00 | 56 | 1007.1 |
| 20260506124944 | 66 | 85 | 7.0 | 9.6 | 0.00 | 0.00 | 0.00 | 58 | 1007.1 |
| 20260506124441 | 66 | 102 | 5.2 | 7.8 | 0.00 | 0.00 | 0.00 | 60 | 1007.1 |
| 20260506123939 | 65 | 76 | 5.2 | 8.7 | 0.00 | 0.00 | 0.00 | 59 | 1007.2 |
| 20260506123437 | 66 | 84 | 5.2 | 12.2 | 0.00 | 0.00 | 0.00 | 58 | 1007.2 |
| 20260506122934 | 66 | 93 | 7.0 | 8.7 | 0.00 | 0.00 | 0.00 | 58 | 1007.5 |
| 20260506122430 | 66 | 91 | 6.1 | 9.6 | 0.00 | 0.00 | 0.00 | 57 | 1007.3 |
| 20260506121929 | 65 | 83 | 3.5 | 7.0 | 0.00 | 0.00 | 0.00 | 59 | 1007.4 |
| 20260506121426 | 65 | 94 | 2.6 | 9.6 | 0.00 | 0.00 | 0.00 | 59 | 1007.2 |
| 20260506120923 | 66 | 80 | 7.8 | 11.3 | 0.00 | 0.00 | 0.00 | 56 | 1007.7 |
| 20260506120420 | 66 | 82 | 5.2 | 9.6 | 0.00 | 0.00 | 0.00 | 56 | 1007.5 |
| 20260506115917 | 65 | 85 | 4.3 | 12.2 | 0.00 | 0.00 | 0.00 | 59 | 1007.4 |
| 20260506115415 | 65 | 86 | 7.8 | 12.2 | 0.00 | 0.00 | 0.00 | 56 | 1007.7 |
| 20260506114913 | 66 | 58 | 7.0 | 15.6 | 0.00 | 0.00 | 0.00 | 55 | 1007.5 |
| 20260506114410 | 65 | 92 | 5.2 | 7.0 | 0.00 | 0.00 | 0.00 | 58 | 1007.5 |
| 20260506113909 | 65 | 79 | 3.5 | 7.8 | 0.00 | 0.00 | 0.00 | 60 | 1007.7 |
| 20260506113406 | 64 | 66 | 3.5 | 12.2 | 0.00 | 0.00 | 0.00 | 59 | 1007.7 |
| 20260506112903 | 64 | 28 | 4.3 | 7.8 | 0.00 | 0.00 | 0.00 | 60 | 1007.8 |
| 20260506112400 | 64 | 101 | 4.3 | 11.3 | 0.00 | 0.00 | 0.00 | 61 | 1008.0 |
| 20260506111857 | 64 | 90 | 3.5 | 13.0 | 0.00 | 0.00 | 0.00 | 57 | 1008.0 |
| 20260506111355 | 64 | 69 | 7.0 | 9.6 | 0.00 | 0.00 | 0.00 | 56 | 1007.9 |
| 20260506110852 | 63 | 96 | 3.5 | 11.3 | 0.00 | 0.00 | 0.00 | 60 | 1008.1 |
| 20260506110350 | 63 | 85 | 3.5 | 12.2 | 0.00 | 0.00 | 0.00 | 59 | 1008.0 |
| 20260506105847 | 63 | 74 | 2.6 | 8.7 | 0.00 | 0.00 | 0.00 | 61 | 1008.3 |
| 20260506105343 | 63 | 83 | 7.0 | 12.2 | 0.00 | 0.00 | 0.00 | 58 | 1008.2 |
| 20260506104840 | 63 | 81 | 9.6 | 13.0 | 0.00 | 0.00 | 0.00 | 57 | 1008.1 |
| 20260506104338 | 64 | 91 | 6.1 | 8.7 | 0.00 | 0.00 | 0.00 | 60 | 1008.2 |
| 20260506103836 | 62 | 118 | 5.2 | 8.7 | 0.00 | 0.00 | 0.00 | 60 | 1008.4 |
| 20260506103333 | 62 | 86 | 3.5 | 8.7 | 0.00 | 0.00 | 0.00 | 60 | 1008.4 |
| 20260506102830 | 62 | 47 | 2.6 | 7.8 | 0.00 | 0.00 | 0.00 | 60 | 1008.5 |
| 20260506102328 | 63 | 87 | 5.2 | 7.8 | 0.00 | 0.00 | 0.00 | 58 | 1008.5 |
| 20260506101825 | 61 | 47 | 4.3 | 6.1 | 0.00 | 0.00 | 0.00 | 61 | 1008.5 |
| 20260506101321 | 61 | 65 | 4.3 | 8.7 | 0.00 | 0.00 | 0.00 | 60 | 1008.8 |
| 20260506100819 | 61 | 82 | 1.7 | 7.0 | 0.00 | 0.00 | 0.00 | 63 | 1008.8 |
| 20260506100317 | 61 | 60 | 3.5 | 9.6 | 0.00 | 0.00 | 0.00 | 63 | 1008.7 |
| 20260506095815 | 60 | 67 | 3.5 | 7.0 | 0.00 | 0.00 | 0.00 | 63 | 1008.6 |
| 20260506095312 | 60 | 30 | 3.5 | 11.3 | 0.00 | 0.00 | 0.00 | 61 | 1008.5 |
| 20260506094809 | 60 | 67 | 7.8 | 11.3 | 0.00 | 0.00 | 0.00 | 62 | 1008.6 |
| 20260506094307 | 60 | 75 | 4.3 | 12.2 | 0.00 | 0.00 | 0.00 | 61 | 1008.5 |
| 20260506093805 | 60 | 65 | 4.3 | 7.8 | 0.00 | 0.00 | 0.00 | 64 | 1008.5 |
| 20260506093302 | 60 | 72 | 5.2 | 12.2 | 0.00 | 0.00 | 0.00 | 62 | 1008.6 |
| 20260506092800 | 59 | 85 | 3.5 | 11.3 | 0.00 | 0.00 | 0.00 | 63 | 1008.5 |
| 20260506092257 | 59 | 38 | 7.8 | 9.6 | 0.00 | 0.00 | 0.00 | 62 | 1008.6 |
| 20260506091754 | 59 | 72 | 7.8 | 11.3 | 0.00 | 0.00 | 0.00 | 63 | 1008.3 |
| 20260506091252 | 58 | 80 | 4.3 | 7.8 | 0.00 | 0.00 | 0.00 | 65 | 1008.5 |
| 20260506090750 | 58 | 50 | 7.0 | 13.9 | 0.00 | 0.00 | 0.00 | 63 | 1008.7 |
| 20260506090247 | 59 | 73 | 5.2 | 9.6 | 0.00 | 0.00 | 0.00 | 64 | 1008.6 |
| 20260506085743 | 58 | 51 | 4.3 | 13.0 | 0.00 | 0.00 | 0.00 | 64 | 1008.6 |
| 20260506085240 | 59 | 48 | 7.8 | 9.6 | 0.00 | 0.00 | 0.00 | 65 | 1008.6 |
| 20260506084736 | 58 | 41 | 2.6 | 7.8 | 0.00 | 0.00 | 0.00 | 66 | 1008.8 |
| 20260506084233 | 58 | 74 | 4.3 | 11.3 | 0.00 | 0.00 | 0.00 | 65 | 1008.8 |
| 20260506083730 | 58 | 64 | 2.6 | 8.7 | 0.00 | 0.00 | 0.00 | 66 | 1008.8 |
| 20260506083228 | 58 | 64 | 5.2 | 8.7 | 0.00 | 0.00 | 0.00 | 65 | 1008.8 |
| 20260506082725 | 58 | 56 | 1.7 | 8.7 | 0.00 | 0.00 | 0.00 | 68 | 1008.8 |
| 20260506082220 | 58 | 111 | 2.6 | 7.8 | 0.00 | 0.00 | 0.00 | 69 | 1009.1 |
| 20260506081718 | 57 | 78 | 2.6 | 7.8 | 0.00 | 0.00 | 0.00 | 69 | 1008.9 |
| 20260506081215 | 57 | 81 | 5.2 | 9.6 | 0.00 | 0.00 | 0.00 | 68 | 1009.2 |
| 20260506080713 | 57 | 80 | 4.3 | 8.7 | 0.00 | 0.00 | 0.00 | 70 | 1009.2 |
| 20260506080209 | 57 | 94 | 4.3 | 9.6 | 0.00 | 0.00 | 0.00 | 69 | 1009.2 |
| 20260506073154 | 55 | 65 | 6.1 | 8.7 | 0.00 | 0.00 | 0.00 | 72 | 1009.5 |
| 20260506072650 | 55 | 79 | 4.3 | 7.0 | 0.00 | 0.00 | 0.00 | 72 | 1009.2 |
| 20260506072148 | 55 | 92 | 6.1 | 9.6 | 0.00 | 0.00 | 0.00 | 72 | 1009.4 |
| 20260506071645 | 55 | 66 | 5.2 | 9.6 | 0.00 | 0.00 | 0.00 | 72 | 1009.5 |
| 20260506071143 | 55 | 63 | 3.5 | 7.0 | 0.00 | 0.00 | 0.00 | 74 | 1009.5 |
| 20260506070640 | 54 | 61 | 7.8 | 11.3 | 0.00 | 0.00 | 0.00 | 72 | 1009.4 |
| 20260506070137 | 54 | 56 | 5.2 | 7.0 | 0.00 | 0.00 | 0.00 | 73 | 1009.5 |
| 20260506062114 | 53 | 69 | 4.3 | 7.8 | 0.00 | 0.00 | 0.00 | 77 | 1009.7 |
| 20260506061609 | 52 | 60 | 4.3 | 8.7 | 0.00 | 0.00 | 0.00 | 79 | 1009.9 |
| 20260506061108 | 52 | 44 | 3.5 | 8.7 | 0.00 | 0.00 | 0.00 | 79 | 1009.7 |
| 20260506060606 | 51 | 42 | 4.3 | 6.1 | 0.00 | 0.00 | 0.00 | 81 | 1009.9 |
| 20260506051035 | 50 | 50 | 1.7 | 9.6 | 0.00 | 0.00 | 0.00 | 85 | 1009.8 |
| 20260506050532 | 50 | 7 | 5.2 | 8.7 | 0.00 | 0.00 | 0.00 | 85 | 1009.8 |
| 20260506045023 | 50 | 72 | 2.6 | 7.0 | 0.00 | 0.00 | 0.00 | 87 | 1009.8 |
| 20260506044521 | 50 | 75 | 3.5 | 8.7 | 0.00 | 0.00 | 0.00 | 87 | 1009.8 |
| 20260506044018 | 49 | 65 | 2.6 | 8.7 | 0.00 | 0.00 | 0.00 | 88 | 1009.7 |
| 20260506043515 | 49 | 66 | 4.3 | 7.0 | 0.00 | 0.00 | 0.00 | 89 | 1009.5 |
| 20260506043013 | 49 | 64 | 2.6 | 7.0 | 0.00 | 0.00 | 0.00 | 89 | 1009.6 |
| 20260506042512 | 49 | 53 | 3.5 | 6.1 | 0.00 | 0.00 | 0.00 | 89 | 1009.8 |
| 20260506042009 | 48 | 47 | 3.5 | 6.1 | 0.00 | 0.00 | 0.00 | 89 | 1009.7 |
| 20260506041508 | 48 | 30 | 2.6 | 6.1 | 0.00 | 0.00 | 0.00 | 89 | 1009.5 |
| 20260506041004 | 48 | 63 | 7.0 | 9.6 | 0.00 | 0.00 | 0.00 | 89 | 1009.6 |
| 20260506040502 | 48 | 90 | 2.6 | 6.1 | 0.00 | 0.00 | 0.00 | 89 | 1009.7 |
| 20260506035957 | 48 | 69 | 2.6 | 6.1 | 0.00 | 0.00 | 0.00 | 89 | 1009.6 |
| 20260506035455 | 48 | 69 | 3.5 | 7.0 | 0.00 | 0.00 | 0.00 | 89 | 1009.7 |
| 20260506034951 | 48 | 52 | 1.7 | 6.1 | 0.00 | 0.00 | 0.00 | 89 | 1009.6 |
| 20260506034449 | 48 | 50 | 5.2 | 7.0 | 0.00 | 0.00 | 0.00 | 88 | 1009.6 |
| 20260506033946 | 48 | 38 | 2.6 | 5.2 | 0.00 | 0.00 | 0.00 | 88 | 1009.6 |
| 20260506033443 | 48 | 42 | 4.3 | 7.0 | 0.00 | 0.00 | 0.00 | 88 | 1009.5 |
| 20260506032939 | 48 | 77 | 3.5 | 7.0 | 0.00 | 0.00 | 0.00 | 88 | 1009.6 |
| 20260506032437 | 48 | 85 | 3.5 | 5.2 | 0.00 | 0.00 | 0.00 | 88 | 1009.5 |
| 20260506031933 | 48 | 70 | 2.6 | 6.1 | 0.00 | 0.00 | 0.00 | 88 | 1009.5 |
| 20260506031431 | 48 | 62 | 3.5 | 7.0 | 0.00 | 0.00 | 0.00 | 88 | 1009.6 |
| 20260506030929 | 48 | 53 | 0.9 | 5.2 | 0.00 | 0.00 | 0.00 | 88 | 1009.4 |
| 20260506030426 | 48 | 73 | 1.7 | 6.1 | 0.00 | 0.00 | 0.00 | 88 | 1009.3 |
| 20260506025923 | 48 | 57 | 2.6 | 6.1 | 0.00 | 0.00 | 0.00 | 88 | 1009.5 |
| 20260506025420 | 48 | 68 | 0.0 | 5.2 | 0.00 | 0.00 | 0.00 | 88 | 1009.5 |
| 20260506024916 | 48 | 46 | 3.5 | 6.1 | 0.00 | 0.00 | 0.00 | 88 | 1009.2 |
| 20260506024414 | 48 | 90 | 1.7 | 2.6 | 0.00 | 0.00 | 0.00 | 88 | 1009.3 |
| 20260506023909 | 48 | 64 | 1.7 | 3.5 | 0.00 | 0.00 | 0.00 | 87 | 1009.2 |
| 20260506023407 | 48 | 88 | 3.5 | 8.7 | 0.00 | 0.00 | 0.00 | 87 | 1009.3 |
| 20260506022903 | 48 | 39 | 4.3 | 5.2 | 0.00 | 0.00 | 0.00 | 87 | 1009.3 |
| 20260506022401 | 48 | 38 | 1.7 | 5.2 | 0.00 | 0.00 | 0.00 | 87 | 1009.4 |
| 20260506021859 | 48 | 53 | 3.5 | 5.2 | 0.00 | 0.00 | 0.00 | 87 | 1009.3 |
| 20260506021355 | 48 | 84 | 4.3 | 5.2 | 0.00 | 0.00 | 0.00 | 87 | 1008.9 |
| 20260506020852 | 48 | 7 | 1.7 | 5.2 | 0.00 | 0.00 | 0.00 | 88 | 1009.2 |
| 20260506020350 | 48 | 38 | 2.6 | 5.2 | 0.00 | 0.00 | 0.00 | 87 | 1009.2 |
| 20260506015847 | 48 | 45 | 0.9 | 3.5 | 0.00 | 0.00 | 0.00 | 87 | 1009.1 |
| 20260506015345 | 48 | 69 | 1.7 | 3.5 | 0.00 | 0.00 | 0.00 | 87 | 1009.1 |
| 20260506014841 | 48 | 53 | 1.7 | 5.2 | 0.00 | 0.00 | 0.00 | 86 | 1009.1 |
| 20260506014338 | 48 | 55 | 3.5 | 7.0 | 0.00 | 0.00 | 0.00 | 86 | 1009.2 |
| 20260506013835 | 48 | 63 | 1.7 | 3.5 | 0.00 | 0.00 | 0.00 | 87 | 1008.9 |
| 20260506013333 | 48 | 57 | 1.7 | 3.5 | 0.00 | 0.00 | 0.00 | 87 | 1009.1 |
| 20260506012829 | 49 | 83 | 0.9 | 5.2 | 0.00 | 0.00 | 0.00 | 86 | 1009.2 |
| 20260506012326 | 49 | 68 | 0.9 | 7.0 | 0.00 | 0.00 | 0.00 | 85 | 1009.3 |
| 20260506011823 | 49 | 20 | 7.0 | 7.8 | 0.00 | 0.00 | 0.00 | 84 | 1009.4 |
| 20260506011319 | 50 | 24 | 2.6 | 3.5 | 0.00 | 0.00 | 0.00 | 83 | 1009.3 |
| 20260506010817 | 50 | 56 | 4.3 | 6.1 | 0.00 | 0.00 | 0.00 | 83 | 1009.3 |
| 20260506010315 | 50 | 356 | 2.6 | 3.5 | 0.00 | 0.00 | 0.00 | 82 | 1009.3 |
| 20260506005812 | 50 | 72 | 2.6 | 3.5 | 0.00 | 0.00 | 0.00 | 81 | 1009.4 |
| 20260506005308 | 51 | 8 | 1.7 | 3.5 | 0.00 | 0.00 | 0.00 | 80 | 1009.1 |
| 20260506004805 | 51 | 64 | 1.7 | 3.5 | 0.00 | 0.00 | 0.00 | 80 | 1008.9 |
| 20260506004302 | 51 | 31 | 1.7 | 2.6 | 0.00 | 0.00 | 0.00 | 80 | 1008.6 |
| 20260506003758 | 51 | 28 | 1.7 | 5.2 | 0.00 | 0.00 | 0.00 | 80 | 1008.6 |
| 20260506003254 | 51 | 74 | 0.9 | 2.6 | 0.00 | 0.00 | 0.00 | 79 | 1008.7 |
| 20260506002751 | 51 | 49 | 2.6 | 2.6 | 0.00 | 0.00 | 0.00 | 79 | 1008.6 |
| 20260506002247 | 51 | 32 | 1.7 | 3.5 | 0.00 | 0.00 | 0.00 | 80 | 1008.6 |
| 20260506001743 | 51 | 78 | 0.0 | 1.7 | 0.00 | 0.00 | 0.00 | 79 | 1008.8 |
| 20260506001241 | 51 | 82 | 0.0 | 2.6 | 0.00 | 0.00 | 0.00 | 78 | 1008.9 |
| 20260506000737 | 51 | 63 | 1.7 | 1.7 | 0.00 | 0.00 | 0.00 | 77 | 1008.8 |
| 20260506000235 | 52 | 26 | 0.9 | 2.6 | 0.00 | 0.00 | 0.00 | 77 | 1008.8 |
| 20260505235732 | 52 | 79 | 0.9 | 1.7 | 0.00 | 0.00 | 0.00 | 77 | 1008.7 |
| 20260505235230 | 52 | 67 | 1.7 | 2.6 | 0.00 | 0.00 | 0.00 | 78 | 1008.7 |
| 20260505234726 | 52 | 59 | 0.0 | 2.6 | 0.00 | 0.00 | 0.00 | 78 | 1008.7 |
| 20260505234224 | 52 | 79 | 0.0 | 2.6 | 0.00 | 0.00 | 0.00 | 79 | 1008.8 |
| 20260505233720 | 52 | 4 | 1.7 | 1.7 | 0.00 | 0.00 | 0.00 | 79 | 1008.6 |
| 20260505233218 | 52 | 52 | 0.9 | 1.7 | 0.00 | 0.00 | 0.00 | 78 | 1009.2 |
| 20260505232715 | 52 | 20 | 0.9 | 2.6 | 0.00 | 0.00 | 0.00 | 78 | 1008.9 |
| 20260505232212 | 52 | 330 | 2.6 | 5.2 | 0.00 | 0.00 | 0.00 | 78 | 1009.1 |
| 20260505231709 | 52 | 52 | 1.7 | 2.6 | 0.00 | 0.00 | 0.00 | 78 | 1008.8 |
| 20260505231208 | 52 | 7 | 1.7 | 2.6 | 0.00 | 0.00 | 0.00 | 76 | 1008.8 |
| 20260505230706 | 52 | 29 | 1.7 | 2.6 | 0.00 | 0.00 | 0.00 | 75 | 1008.7 |
| 20260505230202 | 52 | 78 | 1.7 | 3.5 | 0.00 | 0.00 | 0.00 | 76 | 1008.8 |
| 20260505225658 | 52 | 70 | 1.7 | 2.6 | 0.00 | 0.00 | 0.00 | 77 | 1008.5 |
| 20260505225155 | 52 | 60 | 0.9 | 2.6 | 0.00 | 0.00 | 0.00 | 78 | 1008.4 |
| 20260505224650 | 52 | 67 | 1.7 | 2.6 | 0.00 | 0.00 | 0.00 | 79 | 1008.4 |
| 20260505224144 | 52 | 63 | 1.7 | 2.6 | 0.00 | 0.00 | 0.00 | 79 | 1008.5 |
| 20260505223641 | 52 | 52 | 0.9 | 2.6 | 0.00 | 0.00 | 0.00 | 79 | 1008.5 |
| 20260505223136 | 53 | 63 | 2.6 | 2.6 | 0.00 | 0.00 | 0.00 | 79 | 1008.5 |
| 20260505222632 | 53 | 42 | 2.6 | 6.1 | 0.00 | 0.00 | 0.00 | 80 | 1008.7 |
| 20260505222128 | 53 | 51 | 2.6 | 5.2 | 0.00 | 0.00 | 0.00 | 81 | 1008.9 |
| 20260505221625 | 52 | 19 | 2.6 | 5.2 | 0.00 | 0.00 | 0.00 | 82 | 1008.9 |
| 20260505221122 | 52 | 350 | 2.6 | 3.5 | 0.00 | 0.00 | 0.00 | 82 | 1008.9 |
| 20260505220620 | 52 | 64 | 0.9 | 2.6 | 0.00 | 0.00 | 0.00 | 82 | 1008.6 |
| 20260505220117 | 52 | 36 | 0.9 | 2.6 | 0.00 | 0.00 | 0.00 | 82 | 1008.7 |
| 20260505215615 | 53 | 56 | 0.9 | 2.6 | 0.00 | 0.00 | 0.00 | 82 | 1008.6 |
| 20260505215113 | 53 | 59 | 1.7 | 2.6 | 0.00 | 0.00 | 0.00 | 81 | 1008.6 |
| 20260505214611 | 53 | 80 | 1.7 | 3.5 | 0.00 | 0.00 | 0.00 | 81 | 1008.7 |
| 20260505214107 | 53 | 66 | 1.7 | 1.7 | 0.00 | 0.00 | 0.00 | 81 | 1008.7 |
| 20260505213605 | 53 | 65 | 0.9 | 1.7 | 0.00 | 0.00 | 0.00 | 81 | 1008.7 |
| 20260505213101 | 53 | 57 | 1.7 | 5.2 | 0.00 | 0.00 | 0.00 | 80 | 1008.8 |
| 20260505212557 | 53 | 67 | 0.0 | 3.5 | 0.00 | 0.00 | 0.00 | 80 | 1008.5 |
| 20260505212055 | 54 | 29 | 3.5 | 5.2 | 0.00 | 0.00 | 0.00 | 80 | 1008.9 |
| 20260505211552 | 54 | 33 | 4.3 | 6.1 | 0.00 | 0.00 | 0.00 | 81 | 1008.8 |
| 20260505211049 | 54 | 81 | 1.7 | 5.2 | 0.00 | 0.00 | 0.00 | 81 | 1008.7 |
| 20260505210545 | 54 | 14 | 3.5 | 6.1 | 0.00 | 0.00 | 0.00 | 82 | 1008.8 |
| 20260505210043 | 54 | 55 | 5.2 | 7.8 | 0.00 | 0.00 | 0.00 | 83 | 1008.7 |
| 20260505205540 | 54 | 293 | 3.5 | 7.0 | 0.00 | 0.07 | 0.07 | 84 | 1008.6 |
| 20260505205038 | 54 | 323 | 4.3 | 7.8 | 0.00 | 0.07 | 0.07 | 84 | 1008.7 |
| 20260505204535 | 54 | 11 | 4.3 | 7.8 | 0.00 | 0.07 | 0.07 | 84 | 1008.5 |
| 20260505204032 | 54 | 268 | 7.8 | 9.6 | 0.00 | 0.07 | 0.07 | 83 | 1008.4 |
| 20260505203529 | 54 | 72 | 0.0 | 0.9 | 0.00 | 0.07 | 0.07 | 81 | 1007.7 |
| 20260505203026 | 55 | 83 | 0.0 | 0.9 | 0.00 | 0.07 | 0.07 | 81 | 1007.4 |
| 20260505202522 | 55 | 91 | 2.6 | 2.6 | 0.00 | 0.07 | 0.07 | 82 | 1007.5 |
| 20260505202018 | 55 | 86 | 1.7 | 6.1 | 0.00 | 0.07 | 0.07 | 82 | 1007.3 |